www.pogodaiklimat.ru

Погода и климат >> Архив погоды >> Россия >> Приморский край >> Гамов


ПОГОДА в Гамове

  • Прогноз погоды в Гамове
  • Монитор погоды в Гамове

АРХИВ ПОГОДЫ в Гамове

Время (UTC), дата Ветер
(напр.,м/с)
 
Видим.   Явления Облачность Т
(С)
Тd
(С)
f
(%)
Тe
(С)
Тes
(С)
Комфортность P
(гПа)
Po
(гПа)
Тmin
(С)
Tmax
(С)
R
(мм)
R24
(мм)
S
(см)
06 19.06 З 3 н/о н/о +16.3 +14.0 86 +16 1006.2 1000.0
09 19.06 З 6
{11}
н/о н/о +15.0 +13.5 91 +13 +13 1005.0 998.7 +18.0
12 19.06 З 8-11
{11}
н/о н/о +14.3 +13.8 97 +12 +12 1003.7 998.8
15 19.06 В 1 н/о н/о +14.6 +14.0 96 +15 1005.0 998.7
18 19.06 З 1 н/о н/о +14.3 +13.3 94 +15 1005.0 998.7
21 19.06 В 2 н/о н/о +13.0 +12.7 98 +12 +12 1003.8 998.9 +12.9 0.8
00 20.06 ЮВ 2 н/о н/о +13.6 +13.3 98 +13 1007.6 1001.3
03 20.06 ЮВ 2 н/о н/о +13.1 +12.9 99 +12 1007.6 1001.3
06 20.06 Ю 2 н/о н/о +13.3 +13.1 99 +12 1006.3 1000.0
09 20.06 В 1 н/о н/о +13.9 +13.4 97 +14 +14 1006.3 1000.0 +14.2 3
12 20.06 В 2 н/о н/о +13.2 +12.9 98 +12 1009.0 1002.7
15 20.06 З 1 н/о н/о +12.8 +12.2 96 +13 1010.3 1004.0
18 20.06 штиль 0 н/о н/о +12.9 +12.0 94 +12 1009.0 1002.7
21 20.06 СЗ 3 н/о н/о +13.8 +9.1 73 +13 +13 1007.5 1002.6 +12.5 3
00 21.06 СВ 1 н/о н/о +17.0 +11.5 70 +18 1010.2 1004.0
03 21.06 В 1 н/о н/о +18.2 +13.1 72 +20 1010.2 1004.0
06 21.06 С 1 н/о н/о +19.1 +13.9 72 +21 1010.2 1004.0
09 21.06 штиль 0 н/о н/о +18.5 +13.8 74 +19 +19 1010.2 1004.0 +19.6 0.5
12 21.06 З 2 н/о н/о +16.4 +13.7 84 +17 1011.6 1005.3
15 21.06 СВ 1 н/о н/о +18.8 +12.1 65 +21 1011.5 1005.3
18 21.06 ЮВ 5 н/о н/о +12.7 +12.4 98 +10 1011.6 1005.3
21 21.06 В 3
{11}
н/о н/о +13.0 +12.7 98 +12 +12 1009.9 1004.9 +12.3 0.3
00 22.06 ЮВ 2 н/о н/о +13.3 +12.5 95 +12 1013.0 1006.7
03 22.06 ЮВ 1 н/о н/о +14.9 +12.9 88 +15 1011.6 1005.3
06 22.06 З 5 н/о н/о +15.1 +13.3 89 +14 1010.3 1004.0
09 22.06 З 5 н/о н/о +14.1 +13.1 94 +12 +12 1011.6 1005.3 +16.1
12 22.06 Ю 1 н/о н/о +13.7 +12.8 94 +14 1013.0 1006.7
15 22.06 З 1 н/о н/о +13.4 +12.9 97 +13 1013.0 1006.7
18 22.06 штиль 0 н/о н/о +13.9 +13.3 96 +13 1011.6 1005.3
21 22.06 СЗ 1 н/о н/о +14.2 +13.6 96 +14 +14 1009.4 1004.5 +13.4
00 23.06 ЮВ 1 н/о н/о +13.9 +13.6 98 +14 1013.0 1006.7
03 23.06 ЮЗ 1 н/о н/о +15.5 +14.0 91 +16 1011.6 1005.3
06 23.06 З 6 н/о н/о +15.1 +14.3 95 +13 1011.6 1005.3
09 23.06 З 7 н/о н/о +15.1 +14.5 96 +13 +13 1011.6 1005.3 +18.0
12 23.06 З 6 н/о н/о +15.2 +14.2 94 +14 1013.0 1006.7
15 23.06 З 3 н/о н/о +14.8 +14.3 97 +14 1013.0 1006.7
18 23.06 В 1 н/о н/о +15.4 +14.8 96 +16 1014.3 1008.0
21 23.06 штиль 0 н/о н/о +15.3 +14.8 97 +15 +15 1012.7 1007.8 +14.6
00 24.06 В 1 н/о н/о +15.6 +15.1 97 +16 1015.6 1009.3
03 24.06 ЮВ 2 н/о н/о +16.0 +15.4 96 +16 1017.0 1010.7
06 24.06 Ю 2 н/о н/о +17.5 +15.7 89 +18 1017.0 1010.7
09 24.06 Ю 2 н/о н/о +16.2 +14.7 91 +16 +16 1017.0 1010.7 +18.1 0.3
12 24.06 З 5 н/о н/о +16.0 +14.9 93 +15 1017.0 1010.7
15 24.06 З 4 н/о н/о +15.8 +15.0 95 +15 1017.0 1010.7
18 24.06 З 4 н/о н/о +15.8 +15.3 97 +15 1017.0 1010.7
21 24.06 З 4 н/о н/о +16.0 +15.3 96 +15 +15 1015.5 1010.6 +15.5
00 25.06 З 5 н/о н/о +16.7 +15.6 93 +16 1017.0 1010.7
03 25.06 З 6 н/о н/о +16.7 +15.6 93 +16 1018.3 1012.0
06 25.06 З 7 н/о н/о +17.0 +15.9 93 +16 1017.0 1010.7
09 25.06 З 6 н/о н/о +16.7 +16.1 96 +16 +16 1015.6 1009.3 +17.4
12 25.06 З 4 н/о н/о +16.1 +15.6 97 +15 1017.0 1010.7
15 25.06 З 2 н/о н/о +16.2 +15.9 98 +16 1015.6 1009.3
18 25.06 З 3 н/о н/о +16.6 +16.0 96 +16 1014.3 1008.0
21 25.06 штиль 0 н/о н/о +16.4 +16.0 97 +16 +16 1011.4 1006.5 +15.8
00 26.06 З 4 н/о н/о +16.9 +16.6 98 +16 1013.0 1006.7

 

Местоположение метеостанции Гамов (Приморский край, Россия): широта 42.55 долгота 131.22 высота над уровнем моря 53 м.

В архиве по умолчанию представлена погода в Гамове за последнюю неделю. Архивные данные за месяц целиком и за предыдущие месяцы, начиная с января 2011 года, Вы можете получить, выбрав интересующий диапазон дат из раскрывающегося списка и нажав кнопку "Ввод!".


*Определитесь, кто Вы:
робот инопланетянин человек

Внимание! Время в таблицах - всемирное. Для получения местного времени необходимо прибавить поправку, которая равна 10 ч.

Смотрите также архив погоды в соседних городах и на ближайших метеорологических станциях:

Погода в Посьете (Приморский край, Россия) (36 км)
Погода в Сонбонге (КНДР) (72 км)
Погода в Барабаше (Приморский край, Россия) (74 км)
Погода на Мысе Назимова (Приморский край, Россия) (79 км)
Погода в Владивостоке (Приморский край, Россия) (84 км)
Погода в Находке (Приморский край, Россия) (132 км)
Погода в Многоудобном (Приморский край, Россия) (144 км)
Погода в Чхонджине (КНДР) (144 км)
Погода в Яньцзи (Гирин, Китай) (145 км)
Погода в Тимирязевском (Приморский край, Россия) (158 км)

Пояснения к столбцам:

Ветер - указаны скорость ветра в м/с - средняя за 10 мин, порывы в срок и между сроками (в фигурных скобках) и направление, откуда дует ветер: С - северный, СВ - северо-восточный, В - восточный, ЮВ - юго-восточный, Ю - южный, ЮЗ - юго-западный, З - западный, СЗ - северо-западный.
Видимость - горизонтальная дальность видимости в метрах или километрах. При видимости от 1 до 10 км при отсутствии осадков обычно наблюдается дымка, при ухудшении видимости до 1 км и менее - туман. В сухую погоду видимость может ухудшаться дымом, пылью или мглою.
Явления - указаны атмосферные явления, наблюдавшиеся в срок или в последний час перед сроком; фигурными скобками обозначены явления, наблюдавшиеся между сроками (за 1-3 часа до срока); квадратными скобками обозначены град или гололедные отложения с указанием их диаметра в мм.
Облачность - указаны через наклонную черту общая и нижняя облачность в баллах и высота нижней границы облаков в метрах; квадратными скобками обозначены формы облаков: Ci - перистые, Cs - перисто-слоистые, Cc - перисто-кучевые, Ac - высококучевые, As - высокослоистые, Sc - слоисто-кучевые, Ns - слоисто-дождевые, Cu - кучевые, Cb - кучево-дождевые. Подробнее классификацию облаков см. в Атласе облаков (PDF).
T - Температура воздуха - температура, измеренная на высоте 2 м над землей.
Td - Температура точки росы - температура, при понижении до которой содержащийся в воздухе водяной пар достигнет насыщения.
f - Относительная влажность воздуха - влажноcть воздуха, измеренная на высоте 2 м над землей.
Te - Эффективная температура - температура, которую ощущает одетый по сезону человек в тени. Характеристика душности погоды. При расчете учитывается влияние влажности воздуха и скорости ветра на теплоощущения человека.
Tes - Эффективная температура на солнце - температура, которую ощущает человек, с поправкой на солнечный нагрев. Характеристика знойности погоды. Зависит от высоты солнца над горизонтом, облачности и скорости ветра. Ночью, в пасмурную погоду, а также при ветре 12 м/с и более поправка равна нулю.
P - Атмосферное давление - приведенное к уровню моря атмосферное давление.
Po - Атмосферное давление - измеренное на уровне метеостанции атмосферное давление.
Tmin - Минимальная температура - минимум температуры воздуха на высоте 2 м над землей.
Tmax - Максимальная температура - максимум температуры воздуха на высоте 2 м над землей.
R - Количество осадков - Количество выпавших осадков за период времени, мм. При наведении курсора мыши на число - период времени, за который выпало указанное количество осадков.
R24 - Количество осадков - Количество выпавших осадков за 24 часа, мм.
S - Снежный покров - Высота снежного покрова, см. При наведении курсора мыши на число - состояние снежного покрова и степень покрытия местности в баллах.